THA475 VTBS-YSSY

Flight info

Callsign THA475
Flight time N/A
Altitude 33000
Route BUT1J BUT M904 ENREP N875 PNK G464 PKN A344 MUBOT A587 AS A576 APOMA Y52 VELGI Y105 TARAL Y59 RIVET RIVET4
Aircraft A346/H-SDE2E3FGHIJ3J4J5M1RWXY/LB1D1

Departure

Time 2026-04-30 19:50
Airport Suvarnabhumi Airport (VTBS)

Arrival

Time N/A
Airport Sydney Kingsford Smith International Airport (YSSY)
Time Latitude Longitude Altitude Speed Heading
2026-04-30 19:30 13.68706 100.75398 17 ft 0 kts 284°
2026-04-30 19:40 13.68701 100.75417 17 ft 2 kts 284°
2026-04-30 19:40 13.68697 100.75435 17 ft 2 kts 284°
2026-04-30 19:40 13.68692 100.75453 17 ft 2 kts 284°
2026-04-30 19:40 13.68687 100.75468 17 ft 1 kts 293°
2026-04-30 19:41 13.68682 100.75474 17 ft 1 kts 328°
2026-04-30 19:41 13.68667 100.75478 17 ft 1 kts
2026-04-30 19:41 13.68645 100.75472 17 ft 3 kts 14°
2026-04-30 19:41 13.68637 100.75470 17 ft 0 kts 15°
2026-04-30 19:45 13.68642 100.75472 17 ft 2 kts 15°
2026-04-30 19:45 13.68665 100.75478 17 ft 4 kts 15°
2026-04-30 19:46 13.68704 100.75488 17 ft 7 kts 13°
2026-04-30 19:46 13.68760 100.75502 17 ft 9 kts 14°
2026-04-30 19:46 13.68829 100.75520 17 ft 9 kts 22°
2026-04-30 19:46 13.68853 100.75569 17 ft 8 kts 85°
2026-04-30 19:47 13.68842 100.75637 17 ft 10 kts 103°
2026-04-30 19:47 13.68829 100.75689 17 ft 11 kts 104°
2026-04-30 19:47 13.68809 100.75805 17 ft 10 kts 68°
2026-04-30 19:47 13.68873 100.75844 17 ft 12 kts 17°
2026-04-30 19:48 13.68978 100.75873 17 ft 16 kts 14°
2026-04-30 19:48 13.69095 100.75903 17 ft 17 kts 14°
2026-04-30 19:48 13.69206 100.75942 17 ft 14 kts 42°
2026-04-30 19:48 13.69220 100.75986 17 ft 0 kts 101°
2026-04-30 19:49 13.69219 100.75988 17 ft 2 kts 101°
2026-04-30 19:49 13.69149 100.76090 17 ft 15 kts 187°
2026-04-30 19:49 13.68852 100.76017 17 ft 79 kts 194°
2026-04-30 19:50 13.68090 100.75817 18 ft 145 kts 194°
2026-04-30 19:50 13.66915 100.75509 19 ft 198 kts 194°
2026-04-30 19:50 13.65535 100.75138 436 ft 206 kts 194°
2026-04-30 19:50 13.64188 100.74716 1021 ft 198 kts 198°
2026-04-30 19:51 13.62866 100.74273 1303 ft 204 kts 187°
2026-04-30 19:51 13.61440 100.74104 1635 ft 206 kts 183°
2026-04-30 19:51 13.59970 100.73877 1884 ft 217 kts 188°
2026-04-30 19:51 13.58437 100.73573 2122 ft 230 kts 189°
2026-04-30 19:52 13.56823 100.73250 2356 ft 245 kts 189°
2026-04-30 19:52 13.55072 100.72907 2634 ft 262 kts 189°
2026-04-30 19:52 13.53233 100.72555 3038 ft 273 kts 189°
2026-04-30 19:52 13.51356 100.72201 3630 ft 278 kts 189°
2026-04-30 19:53 13.49436 100.71841 4199 ft 283 kts 189°
2026-04-30 19:53 13.47490 100.71477 4873 ft 284 kts 189°
2026-04-30 19:53 13.45536 100.71111 5542 ft 285 kts 190°
2026-04-30 19:53 13.43602 100.70753 6171 ft 285 kts 191°
2026-04-30 19:54 13.41638 100.70386 6770 ft 286 kts 191°
2026-04-30 19:54 13.39671 100.70019 7330 ft 288 kts 191°
2026-04-30 19:54 13.37683 100.69648 7892 ft 290 kts 191°
2026-04-30 19:54 13.35693 100.69276 8423 ft 292 kts 191°
2026-04-30 19:55 13.33673 100.68900 8952 ft 295 kts 191°
2026-04-30 19:55 13.31640 100.68522 9464 ft 297 kts 191°
2026-04-30 19:55 13.29589 100.68235 9861 ft 300 kts 179°
2026-04-30 19:55 13.27524 100.68656 10091 ft 307 kts 157°
2026-04-30 19:56 13.25649 100.69771 10368 ft 318 kts 147°
2026-04-30 19:56 13.23774 100.71056 10581 ft 330 kts 147°
2026-04-30 19:56 13.21801 100.72406 10791 ft 342 kts 147°
2026-04-30 19:56 13.19784 100.73769 10994 ft 354 kts 148°
2026-04-30 19:57 13.17689 100.75174 11195 ft 365 kts 148°
2026-04-30 19:57 13.15519 100.76621 11393 ft 377 kts 148°
2026-04-30 19:57 13.13279 100.78114 11616 ft 387 kts 148°
2026-04-30 19:57 13.11010 100.79624 12008 ft 391 kts 148°
2026-04-30 19:58 13.08655 100.81069 12470 ft 393 kts 152°
2026-04-30 19:58 13.06215 100.82361 12918 ft 396 kts 155°
2026-04-30 19:58 13.03702 100.83517 13341 ft 398 kts 157°
2026-04-30 19:58 13.01141 100.84660 13755 ft 401 kts 157°
2026-04-30 19:59 12.98544 100.85815 14171 ft 404 kts 158°
2026-04-30 19:59 12.95966 100.86963 14569 ft 407 kts 157°
2026-04-30 19:59 12.90723 100.89301 15358 ft 412 kts 157°
2026-04-30 20:00 12.88081 100.90479 15729 ft 415 kts 157°
2026-04-30 20:00 12.85439 100.91660 15982 ft 417 kts 157°
2026-04-30 20:00 12.82748 100.92861 16013 ft 417 kts 157°
2026-04-30 20:00 12.80113 100.94039 16013 ft 417 kts 157°
2026-04-30 20:01 12.74763 100.96426 16013 ft 416 kts 157°
2026-04-30 20:01 12.72121 100.97605 16014 ft 416 kts 157°
2026-04-30 20:01 12.69432 100.98803 16013 ft 416 kts 158°
2026-04-30 20:02 12.63964 101.00815 16010 ft 416 kts 164°
2026-04-30 20:02 12.61195 101.01614 16016 ft 416 kts 165°
2026-04-30 20:03 12.55603 101.03198 16010 ft 416 kts 165°
2026-04-30 20:03 12.52809 101.03991 16011 ft 416 kts 165°
2026-04-30 20:03 12.49978 101.04796 16161 ft 421 kts 165°
2026-04-30 20:03 12.47167 101.05595 16595 ft 421 kts 165°
2026-04-30 20:04 12.44341 101.06400 17002 ft 422 kts 165°
2026-04-30 20:04 12.41476 101.07215 17338 ft 425 kts 165°
2026-04-30 20:04 12.38625 101.08027 17664 ft 428 kts 165°
2026-04-30 20:05 12.32817 101.09704 18296 ft 434 kts 164°
2026-04-30 20:05 12.29931 101.10558 18620 ft 436 kts 164°
2026-04-30 20:05 12.24013 101.12313 19259 ft 442 kts 164°
2026-04-30 20:06 12.21057 101.13187 19549 ft 444 kts 164°
2026-04-30 20:06 12.18086 101.14065 19871 ft 446 kts 164°
2026-04-30 20:06 12.15101 101.14946 20191 ft 448 kts 164°
2026-04-30 20:06 12.12084 101.15836 20492 ft 451 kts 163°
2026-04-30 20:07 12.09055 101.16730 20783 ft 454 kts 163°
2026-04-30 20:07 12.06006 101.17629 21070 ft 456 kts 164°
2026-04-30 20:07 11.99857 101.19443 21646 ft 461 kts 163°
2026-04-30 20:08 11.96730 101.20365 21949 ft 463 kts 163°
2026-04-30 20:08 11.93613 101.21285 22218 ft 466 kts 163°
2026-04-30 20:08 11.90497 101.22205 22487 ft 468 kts 163°
2026-04-30 20:08 11.87339 101.23136 22775 ft 470 kts 163°
2026-04-30 20:09 11.84201 101.24063 23029 ft 473 kts 163°
2026-04-30 20:09 11.81020 101.25002 23300 ft 475 kts 164°
2026-04-30 20:09 11.74608 101.26892 23837 ft 479 kts 163°
2026-04-30 20:10 11.68152 101.28794 24344 ft 484 kts 164°
2026-04-30 20:10 11.64913 101.29748 24605 ft 486 kts 164°
2026-04-30 20:10 11.61656 101.30708 24867 ft 488 kts 164°
2026-04-30 20:11 11.55071 101.32645 25382 ft 492 kts 164°
2026-04-30 20:11 11.51792 101.33611 25633 ft 494 kts 164°
2026-04-30 20:11 11.48468 101.34588 25886 ft 496 kts 164°
2026-04-30 20:12 11.41796 101.36551 26368 ft 500 kts 164°
2026-04-30 20:12 11.38414 101.37545 26610 ft 502 kts 164°
2026-04-30 20:12 11.35074 101.38526 26863 ft 504 kts 164°
2026-04-30 20:13 11.31691 101.39520 27098 ft 506 kts 164°
2026-04-30 20:13 11.28304 101.40514 27342 ft 507 kts 164°
2026-04-30 20:13 11.24863 101.41526 27561 ft 509 kts 164°
2026-04-30 20:13 11.21455 101.42526 27776 ft 511 kts 164°
2026-04-30 20:14 11.18048 101.43527 28015 ft 513 kts 164°
2026-04-30 20:14 11.14616 101.44534 28362 ft 512 kts 164°
2026-04-30 20:14 11.11155 101.45549 28736 ft 510 kts 164°
2026-04-30 20:14 11.07775 101.46541 29110 ft 508 kts 165°
2026-04-30 20:15 11.04340 101.47550 29482 ft 507 kts 165°
2026-04-30 20:15 11.00977 101.48537 29857 ft 505 kts 165°
2026-04-30 20:15 10.97616 101.49523 30268 ft 502 kts 165°
2026-04-30 20:15 10.94231 101.50515 30714 ft 499 kts 165°
2026-04-30 20:16 10.90920 101.51485 31150 ft 495 kts 165°
2026-04-30 20:16 10.87597 101.52460 31522 ft 493 kts 165°
2026-04-30 20:16 10.84283 101.53429 31783 ft 493 kts 165°
2026-04-30 20:16 10.81007 101.54388 32003 ft 494 kts 166°
2026-04-30 20:17 10.77687 101.55359 32229 ft 495 kts 166°
2026-04-30 20:17 10.74332 101.56341 32473 ft 495 kts 166°
2026-04-30 20:17 10.71013 101.57312 32711 ft 495 kts 166°
2026-04-30 20:17 10.67728 101.58273 32888 ft 496 kts 166°
2026-04-30 20:18 10.64358 101.59258 32889 ft 501 kts 166°
2026-04-30 20:18 10.57639 101.61221 32892 ft 506 kts 166°
2026-04-30 20:19 10.50860 101.63197 32893 ft 506 kts 166°
2026-04-30 20:19 10.44068 101.65176 32892 ft 506 kts 166°
2026-04-30 20:20 10.37254 101.67163 32892 ft 507 kts 166°
2026-04-30 20:20 10.30508 101.69128 32893 ft 506 kts 166°
2026-04-30 20:21 10.23703 101.71111 32893 ft 506 kts 166°
2026-04-30 20:21 10.16901 101.73092 32892 ft 507 kts 166°
2026-04-30 20:22 10.10131 101.75062 32892 ft 507 kts 166°
2026-04-30 20:22 10.03333 101.77039 32892 ft 507 kts 166°
2026-04-30 20:23 9.96516 101.79022 32893 ft 507 kts 166°
2026-04-30 20:23 9.89741 101.80991 32893 ft 507 kts 166°
2026-04-30 20:24 9.82926 101.82969 32892 ft 507 kts 166°
2026-04-30 20:24 9.76109 101.84949 32892 ft 508 kts 166°
2026-04-30 20:25 9.65897 101.87915 32893 ft 508 kts 166°
2026-04-30 20:26 9.55683 101.90877 32893 ft 508 kts 166°
2026-04-30 20:26 9.45460 101.93842 32893 ft 508 kts 166°
2026-04-30 20:27 9.31852 101.97785 32893 ft 509 kts 166°
2026-04-30 20:28 9.18363 102.02369 32893 ft 510 kts 162°
2026-04-30 20:30 9.01603 102.08287 32895 ft 510 kts 162°
2026-04-30 20:31 8.81440 102.15390 32897 ft 509 kts 162°
2026-04-30 20:32 8.64744 102.21265 32888 ft 509 kts 162°
2026-04-30 20:33 8.54695 102.24799 32880 ft 506 kts 162°
2026-04-30 20:34 8.44707 102.28307 32882 ft 506 kts 162°
2026-04-30 20:35 8.34712 102.31818 32890 ft 505 kts 162°
2026-04-30 20:35 8.24749 102.35315 32869 ft 503 kts 162°
2026-04-30 20:36 8.18142 102.37634 32874 ft 504 kts 162°
2026-04-30 20:37 8.08175 102.41129 32879 ft 503 kts 162°
2026-04-30 20:37 8.01530 102.43459 32890 ft 503 kts 162°
2026-04-30 20:38 7.94930 102.45770 32875 ft 503 kts 162°
2026-04-30 20:38 7.88290 102.48097 32872 ft 503 kts 162°
2026-04-30 20:39 7.78340 102.51582 32872 ft 503 kts 162°
2026-04-30 20:40 7.68425 102.55052 32872 ft 503 kts 162°
2026-04-30 20:40 7.61786 102.57374 32872 ft 503 kts 161°
2026-04-30 20:41 7.51849 102.60850 32872 ft 504 kts 161°
2026-04-30 20:41 7.45204 102.63173 32872 ft 504 kts 161°
2026-04-30 20:42 7.38559 102.65496 32872 ft 504 kts 161°
2026-04-30 20:43 7.28633 102.68963 32872 ft 504 kts 161°
2026-04-30 20:43 7.21989 102.71283 32872 ft 504 kts 161°
2026-04-30 20:44 7.12018 102.74766 32872 ft 504 kts 161°
2026-04-30 20:45 6.98761 102.79393 32868 ft 503 kts 161°
2026-04-30 20:45 6.92171 102.81854 32873 ft 504 kts 157°
2026-04-30 20:46 6.79891 102.88654 32865 ft 505 kts 145°
2026-04-30 20:47 6.71260 102.94772 32861 ft 504 kts 145°
2026-04-30 20:48 6.62648 103.00862 32862 ft 504 kts 145°
2026-04-30 20:48 6.56905 103.04914 32865 ft 504 kts 146°
2026-04-30 20:49 6.51188 103.08948 32847 ft 503 kts 146°
2026-04-30 20:50 6.42630 103.14990 32857 ft 500 kts 146°
2026-04-30 20:50 6.36909 103.19025 32852 ft 502 kts 146°
2026-04-30 20:51 6.31250 103.23022 32856 ft 497 kts 146°
2026-04-30 20:51 6.22752 103.29018 32852 ft 497 kts 146°
2026-04-30 20:52 6.17099 103.33007 32854 ft 494 kts 146°
2026-04-30 20:53 6.08642 103.38973 32855 ft 495 kts 146°
2026-04-30 20:53 6.03014 103.42946 32849 ft 493 kts 146°
2026-04-30 20:54 5.94591 103.48895 32853 ft 493 kts 146°
2026-04-30 20:55 5.86151 103.54854 32851 ft 493 kts 146°
2026-04-30 20:55 5.80530 103.58821 32851 ft 493 kts 146°
2026-04-30 20:56 5.72128 103.64751 32851 ft 493 kts 146°
2026-04-30 20:57 5.63713 103.70687 32851 ft 493 kts 146°
2026-04-30 20:57 5.58056 103.74677 32851 ft 493 kts 146°
2026-04-30 20:58 5.49649 103.80605 32851 ft 493 kts 146°
2026-04-30 20:58 5.44013 103.84577 32851 ft 493 kts 146°
2026-04-30 20:59 5.35567 103.90528 32851 ft 493 kts 146°
2026-04-30 21:00 5.24334 103.98441 32851 ft 493 kts 146°
2026-04-30 21:01 5.15912 104.04371 32851 ft 494 kts 146°
2026-04-30 21:02 5.07457 104.10323 32851 ft 494 kts 145°
2026-04-30 21:02 5.01806 104.14303 32851 ft 494 kts 145°
2026-04-30 21:03 4.96186 104.18259 32851 ft 494 kts 145°
2026-04-30 21:03 4.90604 104.22340 32851 ft 494 kts 142°
2026-04-30 21:04 4.85444 104.26897 32851 ft 495 kts 136°
2026-04-30 21:04 4.78464 104.34549 32852 ft 495 kts 131°
2026-04-30 21:05 4.73921 104.39742 32851 ft 495 kts 131°
2026-04-30 21:05 4.69387 104.44916 32851 ft 495 kts 131°
2026-04-30 21:06 4.64843 104.50095 32851 ft 495 kts 131°
2026-04-30 21:06 4.60267 104.55305 32851 ft 495 kts 131°
2026-04-30 21:07 4.55718 104.60485 32851 ft 495 kts 131°
2026-04-30 21:07 4.51173 104.65662 32851 ft 495 kts 131°
2026-04-30 21:08 4.46639 104.70826 32851 ft 495 kts 131°
2026-04-30 21:08 4.42080 104.76015 32851 ft 495 kts 131°
2026-04-30 21:09 4.37556 104.81164 32851 ft 495 kts 131°
2026-04-30 21:09 4.32981 104.86372 32851 ft 495 kts 131°
2026-04-30 21:10 4.28452 104.91531 32851 ft 495 kts 131°
2026-04-30 21:10 4.23881 104.96741 32851 ft 495 kts 131°
2026-04-30 21:11 4.19355 105.01894 32851 ft 495 kts 131°
2026-04-30 21:11 4.14807 105.07086 32851 ft 495 kts 131°
2026-04-30 21:12 4.10269 105.12270 32851 ft 495 kts 131°
2026-04-30 21:12 4.05727 105.17458 32851 ft 495 kts 131°
2026-04-30 21:13 4.01202 105.22629 32851 ft 495 kts 131°
2026-04-30 21:13 3.96654 105.27818 32851 ft 496 kts 131°
2026-04-30 21:14 3.92104 105.32982 32851 ft 495 kts 131°
2026-04-30 21:14 3.87539 105.38164 32851 ft 495 kts 131°
2026-04-30 21:15 3.82991 105.43333 32851 ft 494 kts 131°
2026-04-30 21:15 3.78448 105.48496 32851 ft 494 kts 131°
2026-04-30 21:16 3.73894 105.53670 32851 ft 495 kts 131°
2026-04-30 21:16 3.69344 105.58851 32851 ft 494 kts 131°
2026-04-30 21:17 3.64811 105.64024 32851 ft 494 kts 131°
2026-04-30 21:17 3.60285 105.69189 32851 ft 493 kts 131°
2026-04-30 21:18 3.55770 105.74342 32851 ft 494 kts 131°
2026-04-30 21:18 3.51238 105.79512 32851 ft 493 kts 131°
2026-04-30 21:19 3.46739 105.84663 32851 ft 492 kts 131°
2026-04-30 21:19 3.42208 105.89816 32851 ft 492 kts 131°
2026-04-30 21:20 3.37679 105.94965 32851 ft 493 kts 131°
2026-04-30 21:20 3.33150 106.00119 32851 ft 493 kts 131°
2026-04-30 21:21 3.28611 106.05287 32851 ft 493 kts 131°
2026-04-30 21:22 3.21842 106.12989 32851 ft 491 kts 131°
2026-04-30 21:23 3.12816 106.23265 32851 ft 491 kts 131°
2026-04-30 21:23 3.06030 106.30997 32851 ft 491 kts 131°
2026-04-30 21:24 3.01526 106.36128 32850 ft 491 kts 131°
2026-04-30 21:24 2.97023 106.41260 32850 ft 491 kts 131°
2026-04-30 21:25 2.90273 106.48949 32849 ft 491 kts 131°
2026-04-30 21:26 2.83504 106.56676 32847 ft 491 kts 131°
2026-04-30 21:27 2.76723 106.64407 32846 ft 492 kts 131°
2026-04-30 21:27 2.72236 106.69525 32845 ft 492 kts 131°
2026-04-30 21:28 2.65475 106.77242 32844 ft 492 kts 131°
2026-04-30 21:29 2.58706 106.84967 32844 ft 492 kts 131°
2026-04-30 21:30 2.47427 106.97837 32844 ft 492 kts 131°
2026-04-30 21:31 2.36036 107.10610 32839 ft 492 kts 135°
2026-04-30 21:32 2.28554 107.17647 32837 ft 493 kts 137°
2026-04-30 21:32 2.23537 107.22317 32836 ft 493 kts 137°
2026-04-30 21:33 2.16015 107.29330 32832 ft 493 kts 137°
2026-04-30 21:34 2.10977 107.34028 32832 ft 493 kts 137°
2026-04-30 21:34 2.03449 107.41052 32831 ft 493 kts 136°
2026-04-30 21:35 1.98432 107.45730 32832 ft 493 kts 136°
2026-04-30 21:35 1.93415 107.50417 32832 ft 493 kts 136°
2026-04-30 21:36 1.88396 107.55112 32831 ft 493 kts 136°
2026-04-30 21:37 1.78373 107.64489 32830 ft 494 kts 136°
2026-04-30 21:37 1.73351 107.69188 32831 ft 494 kts 136°
2026-04-30 21:38 1.68337 107.73878 32830 ft 494 kts 136°
2026-04-30 21:38 1.63297 107.78592 32830 ft 494 kts 136°
2026-04-30 21:39 1.58298 107.83270 32830 ft 494 kts 136°
2026-04-30 21:39 1.53279 107.87965 32830 ft 495 kts 136°
2026-04-30 21:40 1.48251 107.92670 32831 ft 494 kts 136°
2026-04-30 21:40 1.43211 107.97385 32830 ft 494 kts 136°
2026-04-30 21:41 1.38189 108.02062 32830 ft 495 kts 137°
2026-04-30 21:41 1.33143 108.06732 32830 ft 495 kts 137°
2026-04-30 21:42 1.28064 108.11437 32830 ft 495 kts 137°
2026-04-30 21:42 1.23026 108.16108 32830 ft 495 kts 137°
2026-04-30 21:43 1.17985 108.20783 32830 ft 495 kts 137°
2026-04-30 21:43 1.12927 108.25474 32830 ft 495 kts 137°
2026-04-30 21:44 1.07882 108.30154 32830 ft 495 kts 137°
2026-04-30 21:44 1.02823 108.34845 32830 ft 495 kts 137°
2026-04-30 21:45 0.97774 108.39527 32831 ft 495 kts 137°
2026-04-30 21:45 0.92721 108.44214 32832 ft 495 kts 137°
2026-04-30 21:46 0.87653 108.48914 32835 ft 495 kts 137°
2026-04-30 21:46 0.82606 108.53594 32836 ft 495 kts 137°
2026-04-30 21:47 0.77541 108.58291 32836 ft 496 kts 137°
2026-04-30 21:47 0.72501 108.62965 32836 ft 496 kts 137°
2026-04-30 21:48 0.67439 108.67659 32839 ft 496 kts 137°
2026-04-30 21:48 0.62390 108.72343 32840 ft 496 kts 137°
2026-04-30 21:49 0.57331 108.77036 32840 ft 496 kts 137°
2026-04-30 21:49 0.52279 108.81721 32843 ft 496 kts 137°
2026-04-30 21:50 0.47225 108.86396 32847 ft 496 kts 137°
2026-04-30 21:50 0.42144 108.91098 32849 ft 496 kts 137°
2026-04-30 21:51 0.37084 108.95782 32848 ft 496 kts 137°
2026-04-30 21:51 0.32029 109.00465 32848 ft 496 kts 137°
2026-04-30 21:52 0.26960 109.05160 32848 ft 496 kts 137°
2026-04-30 21:52 0.21917 109.09832 32845 ft 496 kts 137°
2026-04-30 21:53 0.16857 109.14520 32847 ft 496 kts 137°
2026-04-30 21:53 0.11763 109.19240 32849 ft 496 kts 137°
2026-04-30 21:54 0.06716 109.23916 32848 ft 496 kts 137°
2026-04-30 21:54 0.01670 109.28593 32851 ft 496 kts 137°
2026-04-30 21:55 -0.03414 109.33305 32852 ft 496 kts 137°
2026-04-30 21:55 -0.08494 109.37966 32850 ft 496 kts 139°
2026-04-30 21:56 -0.13749 109.42467 32853 ft 496 kts 139°
2026-04-30 21:56 -0.18986 109.46933 32856 ft 495 kts 139°
2026-04-30 21:57 -0.24246 109.51424 32859 ft 495 kts 139°
2026-04-30 21:57 -0.29463 109.55881 32859 ft 495 kts 139°
2026-04-30 21:58 -0.34711 109.60368 32858 ft 495 kts 139°
2026-04-30 21:58 -0.39935 109.64834 32858 ft 495 kts 139°
2026-04-30 21:59 -0.45183 109.69320 32859 ft 495 kts 139°
2026-04-30 22:00 -0.53028 109.76027 32863 ft 495 kts 139°
2026-04-30 22:00 -0.60860 109.82723 32864 ft 494 kts 139°
2026-04-30 22:01 -0.66079 109.87185 32863 ft 494 kts 139°
2026-04-30 22:01 -0.71301 109.91650 32862 ft 494 kts 139°
2026-04-30 22:02 -0.76521 109.96113 32861 ft 494 kts 139°
2026-04-30 22:02 -0.81753 110.00588 32861 ft 494 kts 139°
2026-04-30 22:03 -0.86971 110.05050 32862 ft 494 kts 139°
2026-04-30 22:03 -0.92198 110.09519 32863 ft 494 kts 139°
2026-04-30 22:04 -0.97405 110.13972 32864 ft 493 kts 139°
2026-04-30 22:05 -1.05231 110.20667 32868 ft 493 kts 139°
2026-04-30 22:05 -1.10467 110.25144 32869 ft 494 kts 139°
2026-04-30 22:06 -1.15708 110.29629 32870 ft 494 kts 139°
2026-04-30 22:06 -1.23549 110.36342 32865 ft 494 kts 139°
2026-04-30 22:07 -1.28778 110.40814 32862 ft 495 kts 139°
2026-04-30 22:07 -1.33910 110.45344 32864 ft 494 kts 137°
2026-04-30 22:08 -1.39040 110.49952 32868 ft 496 kts 137°
2026-04-30 22:08 -1.44161 110.54551 32873 ft 495 kts 137°
2026-04-30 22:09 -1.49283 110.59141 32880 ft 496 kts 137°
2026-04-30 22:09 -1.54442 110.63761 32879 ft 496 kts 137°
2026-04-30 22:10 -1.59587 110.68368 32876 ft 496 kts 137°
2026-04-30 22:10 -1.64749 110.72991 32875 ft 496 kts 137°
2026-04-30 22:11 -1.72454 110.79892 32874 ft 498 kts 137°
2026-04-30 22:12 -1.77634 110.84532 32872 ft 497 kts 137°
2026-04-30 22:12 -1.82771 110.89133 32872 ft 498 kts 137°
2026-04-30 22:13 -1.87953 110.93778 32870 ft 498 kts 137°
2026-04-30 22:13 -1.93114 110.98402 32869 ft 498 kts 137°
2026-04-30 22:14 -1.98257 111.03014 32868 ft 498 kts 137°
2026-04-30 22:14 -2.03447 111.07667 32867 ft 499 kts 137°
2026-04-30 22:15 -2.08611 111.12286 32869 ft 498 kts 137°
2026-04-30 22:15 -2.13778 111.16889 32873 ft 498 kts 137°
2026-04-30 22:16 -2.18973 111.21521 32878 ft 498 kts 137°
2026-04-30 22:17 -2.29286 111.30727 32883 ft 498 kts 137°
2026-04-30 22:17 -2.37050 111.37659 32873 ft 498 kts 137°
2026-04-30 22:18 -2.44787 111.44571 32864 ft 498 kts 137°
2026-04-30 22:19 -2.52541 111.51496 32855 ft 497 kts 137°
2026-04-30 22:20 -2.60289 111.58421 32853 ft 497 kts 137°
2026-04-30 22:20 -2.68012 111.65325 32853 ft 496 kts 137°
2026-04-30 22:21 -2.73076 111.70003 32853 ft 496 kts 134°
2026-04-30 22:21 -2.77917 111.74914 32853 ft 496 kts 134°
2026-04-30 22:22 -2.82736 111.79830 32854 ft 495 kts 134°
2026-04-30 22:22 -2.87562 111.84756 32856 ft 494 kts 134°
2026-04-30 22:23 -2.92375 111.89665 32858 ft 494 kts 134°
2026-04-30 22:23 -2.97224 111.94611 32859 ft 495 kts 134°
2026-04-30 22:24 -3.02038 111.99523 32859 ft 494 kts 134°
2026-04-30 22:24 -3.06837 112.04423 32858 ft 494 kts 134°
2026-04-30 22:25 -3.11656 112.09336 32857 ft 494 kts 134°
2026-04-30 22:25 -3.16475 112.14256 32856 ft 493 kts 134°
2026-04-30 22:26 -3.23688 112.21622 32854 ft 494 kts 134°
2026-04-30 22:27 -3.28472 112.26502 32853 ft 493 kts 134°
2026-04-30 22:27 -3.35694 112.33881 32852 ft 494 kts 134°
2026-04-30 22:28 -3.42908 112.41247 32852 ft 494 kts 134°
2026-04-30 22:29 -3.52542 112.51088 32851 ft 494 kts 134°
2026-04-30 22:31 -3.69373 112.68295 32851 ft 496 kts 134°
2026-04-30 22:32 -3.81444 112.80634 32852 ft 495 kts 135°
2026-04-30 22:33 -3.93515 112.92982 32851 ft 497 kts 135°
2026-04-30 22:35 -4.05611 113.05361 32849 ft 498 kts 135°
2026-04-30 22:36 -4.17712 113.17752 32846 ft 497 kts 135°
2026-04-30 22:37 -4.27378 113.27655 32844 ft 497 kts 135°
2026-04-30 22:38 -4.37058 113.37573 32860 ft 498 kts 135°
2026-04-30 22:39 -4.44321 113.45019 32850 ft 498 kts 135°
2026-04-30 22:40 -4.58862 113.59934 32848 ft 498 kts 135°
2026-04-30 22:41 -4.70940 113.72329 32852 ft 498 kts 135°
2026-04-30 22:43 -4.85469 113.87251 32862 ft 498 kts 135°
2026-04-30 22:44 -4.95137 113.97184 32854 ft 498 kts 135°
2026-04-30 22:45 -5.10244 114.11532 32850 ft 498 kts 137°
2026-04-30 22:47 -5.25383 114.25884 32851 ft 499 kts 137°
2026-04-30 22:48 -5.35455 114.35442 32851 ft 500 kts 137°
2026-04-30 22:49 -5.50596 114.49819 32852 ft 499 kts 137°
2026-04-30 22:51 -5.65770 114.64235 32852 ft 500 kts 137°
2026-04-30 22:52 -5.73371 114.71463 32852 ft 500 kts 136°
2026-04-30 22:53 -5.83452 114.81052 32852 ft 500 kts 136°
2026-04-30 22:53 -5.91034 114.88266 32852 ft 500 kts 136°
2026-04-30 22:55 -6.03680 115.00307 32853 ft 501 kts 136°
2026-04-30 22:56 -6.13805 115.09955 32850 ft 499 kts 137°
2026-04-30 22:57 -6.26396 115.21957 32856 ft 500 kts 136°
2026-04-30 22:58 -6.36482 115.31576 32861 ft 497 kts 136°
2026-04-30 22:59 -6.51556 115.45969 32856 ft 498 kts 136°